Flag for Germany Weather past 2 weeks in Warburg, North Rhine-Westphalia, Germany

Now
55 °F

Fog.


Feels Like: 55 °F
Forecast: 52 / 76 °F
Wind: 3 mph from Southwest

Location: Bad Lippspringe

Current Time: Aug 28, 2015 at 4:31:12 AM

Latest Report: Aug 28, 2015 at 4:00 AM


Visibility: 2 mi

Pressure: 29.95 "Hg

Humidity: 97%

Dew point: 54 °F

Location of WarburgLocation

Historic Weather in Warburg — Graph

°F

Warburg temperature yesterday

Maximum temperature yesterday: 74 °F (at 12:00 AM)
Minimum temperature yesterday: 57 °F (at 10:00 PM)
Average temperature yesterday: 66 °F

Past Weeks' High & Low Weather Summary

 TemperatureHumidityPressure
High85 °F (Aug 13, 5:00 PM)100% (Aug 14, 10:00 PM)30.27 "Hg (Aug 14, 10:00 PM)
Low51 °F (Aug 19, 7:00 AM)34% (Aug 22, 3:00 PM)29.59 "Hg (Aug 24, 6:00 PM)
Average66 °F74%29.94 "Hg
* Reported Aug 13 3:00 AM — Aug 28 3:00 AM, Warburg, Weather by CustomWeather, © 2015

Note: Actual official high and low records may vary slightly from our data, if they occured in-between our weather recording intervals... More about our weather records

Advertising

Warburg weather history for previous 24 hours

 ConditionsComfort  
Time TempWeatherWind HumidityBarometerVisibility
3:00 AM
Fri, Aug 28
55 °FLow clouds.2 mph97%29.94 "Hg2 mi
2:00 AM55 °FLight freezing rain. Low clouds.2 mph97%29.92 "Hg3 mi
1:00 AM55 °FRain. Low clouds.1 mph98%29.91 "Hg1 mi
11:00 PM
Thu, Aug 27
57 °FLight rain. Low clouds.3 mph99%29.89 "Hg1 mi
10:00 PM57 °FLight rain. Low clouds.1 mph97%29.87 "Hg2 mi
9:00 PM58 °FLight freezing rain. Low clouds.2 mph97%29.88 "Hg2 mi
8:00 PM58 °FLight rain. Low clouds.2 mph97%29.87 "Hg2 mi
7:00 PM59 °FRain. Low clouds.1 mph98%29.86 "Hg2 mi
6:00 PM59 °FLight rain. Low clouds.2 mph96%29.86 "Hg3 mi
5:00 PM60 °FLight rain. Low clouds.5 mph96%29.86 "Hg3 mi
4:00 PM63 °FLight rain. Overcast.2 mph90%29.86 "Hg4 mi
3:00 PM65 °FLight rain. Overcast.2 mph74%29.86 "Hg11 mi
2:00 PM67 °FOvercast.3 mph66%29.86 "Hg37 mi
1:00 PM67 °FOvercast.2 mph73%29.86 "Hg34 mi
12:00 PM66 °FOvercast.3 mph68%29.86 "Hg34 mi
11:00 AM68 °FOvercast.7 mph59%29.86 "Hg40 mi
10:00 AM69 °FOvercast.8 mph60%29.85 "Hg31 mi
9:00 AM69 °FOvercast.2 mph65%29.82 "Hg31 mi
8:00 AM70 °FLight rain. Overcast.3 mph62%29.81 "Hg25 mi
7:00 AM70 °FOvercast.3 mph58%29.79 "Hg37 mi
6:00 AM70 °FOvercast.2 mph57%29.78 "Hg34 mi
5:00 AM71 °FOvercast.3 mph54%29.78 "Hg22 mi
4:00 AM72 °FOvercast.3 mph50%29.77 "Hg37 mi
Weather by CustomWeather, © 2015

See weather overviewHow to use our weather pages